Time,TemperatureF,DewpointF,PressureIn,WindDirection,WindDirectionDegrees,WindSpeedMPH,WindSpeedGustMPH,Humidity,HourlyPrecipIn,Conditions,Clouds,dailyrainin,SolarRadiationWatts/m^2,SoftwareType,DateUTC
2013-05-29 00:02:00,74.0,71.0,-100.00,SSE,153,6.0,11.0,89,0.00,,,0.00,0.000000,,2013-05-29 05:02:00,
2013-05-29 00:33:00,73.0,71.0,-100.00,SE,143,7.0,11.0,92,0.00,,,0.00,0.000000,,2013-05-29 05:33:00,
2013-05-29 00:42:00,73.0,71.0,-100.00,SE,143,7.0,11.0,92,0.00,,,0.00,0.000000,,2013-05-29 05:42:00,
2013-05-29 00:52:00,73.0,71.0,-100.00,SE,143,7.0,11.0,92,0.00,,,0.00,0.000000,,2013-05-29 05:52:00,
2013-05-29 01:01:00,73.0,71.0,-100.00,SE,143,7.0,11.0,92,0.00,,,0.00,0.000000,,2013-05-29 06:01:00,
2013-05-29 01:32:00,73.0,71.0,-100.00,SE,130,5.0,12.0,92,0.00,,,0.00,0.000000,,2013-05-29 06:32:00,
2013-05-29 01:42:00,73.0,71.0,-100.00,SE,130,5.0,12.0,92,0.00,,,0.00,0.000000,,2013-05-29 06:42:00,
2013-05-29 01:52:00,73.0,71.0,-100.00,SE,130,5.0,12.0,92,0.00,,,0.00,0.000000,,2013-05-29 06:52:00,
2013-05-29 02:01:00,73.0,71.0,-100.00,SE,130,5.0,12.0,92,0.00,,,0.00,0.000000,,2013-05-29 07:01:00,
2013-05-29 02:34:00,72.0,70.0,-100.00,SE,130,5.0,8.0,94,0.00,,,0.00,0.000000,,2013-05-29 07:34:00,
2013-05-29 02:42:00,72.0,70.0,-100.00,SE,130,5.0,8.0,94,0.00,,,0.00,0.000000,,2013-05-29 07:42:00,
2013-05-29 02:52:00,72.0,70.0,-100.00,SE,130,5.0,8.0,94,0.00,,,0.00,0.000000,,2013-05-29 07:52:00,
2013-05-29 03:02:00,72.0,70.0,-100.00,SE,130,5.0,8.0,94,0.00,,,0.00,0.000000,,2013-05-29 08:02:00,
2013-05-29 03:32:00,72.0,71.0,-100.00,SE,132,4.0,9.0,96,0.00,,,-99.99,0.000000,,2013-05-29 08:32:00,
2013-05-29 03:42:00,72.0,71.0,-100.00,SE,132,4.0,9.0,96,0.00,,,-99.99,0.000000,,2013-05-29 08:42:00,
2013-05-29 03:52:00,72.0,71.0,-100.00,SE,132,4.0,9.0,96,0.00,,,-99.99,0.000000,,2013-05-29 08:52:00,
2013-05-29 04:01:00,72.0,71.0,-100.00,SE,132,4.0,9.0,96,0.00,,,-99.99,0.000000,,2013-05-29 09:01:00,
2013-05-29 04:33:00,71.0,70.0,-100.00,SE,139,4.0,7.0,96,0.00,,,0.00,0.000000,,2013-05-29 09:33:00,
2013-05-29 04:42:00,71.0,70.0,-100.00,SE,139,4.0,7.0,96,0.00,,,0.00,0.000000,,2013-05-29 09:42:00,
2013-05-29 04:52:00,71.0,70.0,-100.00,SE,139,4.0,7.0,96,0.00,,,0.00,0.000000,,2013-05-29 09:52:00,
2013-05-29 05:03:00,71.0,70.0,-100.00,SE,139,4.0,7.0,96,0.00,,,0.00,0.000000,,2013-05-29 10:03:00,
2013-05-29 05:33:00,71.0,70.0,-100.00,SE,135,5.0,9.0,97,0.00,,,0.00,0.000000,,2013-05-29 10:33:00,
2013-05-29 05:42:00,71.0,70.0,-100.00,SE,135,5.0,9.0,97,0.00,,,0.00,0.000000,,2013-05-29 10:42:00,
2013-05-29 05:53:00,71.0,70.0,-100.00,SE,135,5.0,9.0,97,0.00,,,0.00,0.000000,,2013-05-29 10:53:00,
2013-05-29 06:02:00,71.0,70.0,-100.00,SE,135,5.0,9.0,97,0.00,,,0.00,0.000000,,2013-05-29 11:02:00,
2013-05-29 06:32:00,71.0,70.0,-100.00,SSE,147,5.0,11.0,97,0.00,,,0.00,0.000000,,2013-05-29 11:32:00,
2013-05-29 06:42:00,71.0,70.0,-100.00,SSE,147,5.0,11.0,97,0.00,,,0.00,0.000000,,2013-05-29 11:42:00,
2013-05-29 06:52:00,71.0,70.0,-100.00,SSE,147,5.0,11.0,97,0.00,,,0.00,0.000000,,2013-05-29 11:52:00,
2013-05-29 07:01:00,71.0,70.0,-100.00,SSE,147,5.0,11.0,97,0.00,,,0.00,0.000000,,2013-05-29 12:01:00,
2013-05-29 07:32:00,70.0,69.0,-100.00,ENE,68,3.0,6.0,97,0.00,,,0.00,16.000000,,2013-05-29 12:32:00,
2013-05-29 07:42:00,70.0,69.0,-100.00,ENE,68,3.0,6.0,97,0.00,,,0.00,16.000000,,2013-05-29 12:42:00,
2013-05-29 07:52:00,70.0,69.0,-100.00,ENE,68,3.0,6.0,97,0.00,,,0.00,16.000000,,2013-05-29 12:52:00,
2013-05-29 08:02:00,70.0,69.0,-100.00,ENE,68,3.0,6.0,97,0.00,,,0.00,16.000000,,2013-05-29 13:02:00,
2013-05-29 08:32:00,73.0,72.0,-100.00,ESE,119,4.0,8.0,97,0.00,,,0.00,54.000000,,2013-05-29 13:32:00,
2013-05-29 08:42:00,73.0,72.0,-100.00,ESE,119,4.0,8.0,97,0.00,,,0.00,54.000000,,2013-05-29 13:42:00,
2013-05-29 08:53:00,73.0,72.0,-100.00,ESE,119,4.0,8.0,97,0.00,,,0.00,54.000000,,2013-05-29 13:53:00,
2013-05-29 09:02:00,73.0,72.0,-100.00,ESE,119,4.0,8.0,97,0.00,,,0.00,54.000000,,2013-05-29 14:02:00,
2013-05-29 10:33:00,80.0,71.0,-100.00,SE,131,7.0,17.0,75,-99.99,,,0.00,312.000000,,2013-05-29 15:33:00,
2013-05-29 10:43:00,80.0,71.0,-100.00,SE,131,7.0,17.0,75,-99.99,,,0.00,312.000000,,2013-05-29 15:43:00,
2013-05-29 10:53:00,80.0,71.0,-100.00,SE,131,7.0,17.0,75,-99.99,,,0.00,312.000000,,2013-05-29 15:53:00,
2013-05-29 11:03:00,80.0,71.0,-100.00,SE,131,7.0,17.0,75,-99.99,,,0.00,312.000000,,2013-05-29 16:03:00,
2013-05-29 11:33:00,82.0,71.0,-100.00,SSE,158,10.0,17.0,70,0.00,,,0.00,427.000000,,2013-05-29 16:33:00,
2013-05-29 11:42:00,82.0,71.0,-100.00,SSE,158,10.0,17.0,70,0.00,,,0.00,427.000000,,2013-05-29 16:42:00,
2013-05-29 11:52:00,82.0,71.0,-100.00,SSE,158,10.0,17.0,70,0.00,,,0.00,427.000000,,2013-05-29 16:52:00,
2013-05-29 12:02:00,82.0,71.0,-100.00,SSE,158,10.0,17.0,70,0.00,,,0.00,427.000000,,2013-05-29 17:02:00,
2013-05-29 12:32:00,84.0,70.0,-100.00,SSE,150,7.0,16.0,64,0.00,,,0.00,501.000000,,2013-05-29 17:32:00,
2013-05-29 12:43:00,84.0,70.0,-100.00,SSE,150,7.0,16.0,64,0.00,,,0.00,501.000000,,2013-05-29 17:43:00,
2013-05-29 12:52:00,84.0,70.0,-100.00,SSE,150,7.0,16.0,64,0.00,,,0.00,501.000000,,2013-05-29 17:52:00,
2013-05-29 13:01:00,84.0,70.0,-100.00,SSE,150,7.0,16.0,64,0.00,,,0.00,501.000000,,2013-05-29 18:01:00,
2013-05-29 13:32:00,85.0,70.0,-100.00,SSE,149,10.0,18.0,60,0.00,,,0.00,520.000000,,2013-05-29 18:32:00,
2013-05-29 13:42:00,85.0,70.0,-100.00,SSE,149,10.0,18.0,60,0.00,,,0.00,520.000000,,2013-05-29 18:42:00,
2013-05-29 13:52:00,85.0,70.0,-100.00,SSE,149,10.0,18.0,60,0.00,,,0.00,520.000000,,2013-05-29 18:52:00,
2013-05-29 14:02:00,85.0,70.0,-100.00,SSE,149,10.0,18.0,60,0.00,,,0.00,520.000000,,2013-05-29 19:02:00,
2013-05-29 14:32:00,85.0,68.0,-100.00,SSE,151,11.0,20.0,56,0.00,,,0.00,636.000000,,2013-05-29 19:32:00,
2013-05-29 14:44:00,85.0,68.0,-100.00,SSE,151,11.0,20.0,56,0.00,,,0.00,636.000000,,2013-05-29 19:44:00,
2013-05-29 14:53:00,85.0,68.0,-100.00,SSE,151,11.0,20.0,56,0.00,,,0.00,636.000000,,2013-05-29 19:53:00,
2013-05-29 15:02:00,85.0,68.0,-100.00,SSE,151,11.0,20.0,56,0.00,,,0.00,636.000000,,2013-05-29 20:02:00,
2013-05-29 15:33:00,85.0,69.0,-100.00,SSE,155,10.0,22.0,58,0.00,,,0.00,596.000000,,2013-05-29 20:33:00,
2013-05-29 15:42:00,85.0,69.0,-100.00,SSE,155,10.0,22.0,58,0.00,,,0.00,596.000000,,2013-05-29 20:42:00,
2013-05-29 15:53:00,85.0,69.0,-100.00,SSE,155,10.0,22.0,58,0.00,,,0.00,596.000000,,2013-05-29 20:53:00,
2013-05-29 16:02:00,85.0,69.0,-100.00,SSE,155,10.0,22.0,58,0.00,,,0.00,596.000000,,2013-05-29 21:02:00,
2013-05-29 16:33:00,85.0,70.0,-100.00,South,169,9.0,20.0,61,0.00,,,-99.99,496.000000,,2013-05-29 21:33:00,
2013-05-29 16:44:00,85.0,70.0,-100.00,South,169,9.0,20.0,61,0.00,,,-99.99,496.000000,,2013-05-29 21:44:00,
2013-05-29 16:53:00,85.0,70.0,-100.00,South,169,9.0,20.0,61,0.00,,,-99.99,496.000000,,2013-05-29 21:53:00,
2013-05-29 17:03:00,85.0,70.0,-100.00,South,169,9.0,20.0,61,0.00,,,-99.99,496.000000,,2013-05-29 22:03:00,
2013-05-29 17:34:00,84.0,70.0,-100.00,SSE,154,11.0,21.0,62,0.00,,,-99.99,339.000000,,2013-05-29 22:34:00,
2013-05-29 17:42:00,84.0,70.0,-100.00,SSE,154,11.0,21.0,62,0.00,,,-99.99,339.000000,,2013-05-29 22:42:00,
2013-05-29 17:53:00,84.0,70.0,-100.00,SSE,154,11.0,21.0,62,0.00,,,-99.99,339.000000,,2013-05-29 22:53:00,
2013-05-29 18:02:00,84.0,70.0,-100.00,SSE,154,11.0,21.0,62,0.00,,,-99.99,339.000000,,2013-05-29 23:02:00,
2013-05-29 18:33:00,82.0,71.0,-100.00,SSE,162,8.0,15.0,69,0.00,,,0.00,185.000000,,2013-05-29 23:33:00,
2013-05-29 18:42:00,82.0,71.0,-100.00,SSE,162,8.0,15.0,69,0.00,,,0.00,185.000000,,2013-05-29 23:42:00,
2013-05-29 18:53:00,82.0,71.0,-100.00,SSE,162,8.0,15.0,69,0.00,,,0.00,185.000000,,2013-05-29 23:53:00,
2013-05-29 19:01:00,82.0,71.0,-100.00,SSE,162,8.0,15.0,69,0.00,,,0.00,185.000000,,2013-05-30 00:01:00,
2013-05-29 19:32:00,80.0,70.0,-100.00,SSE,150,9.0,21.0,71,0.00,,,-99.99,125.000000,,2013-05-30 00:32:00,
2013-05-29 19:42:00,80.0,70.0,-100.00,SSE,150,9.0,21.0,71,0.00,,,-99.99,125.000000,,2013-05-30 00:42:00,
2013-05-29 19:52:00,80.0,70.0,-100.00,SSE,150,9.0,21.0,71,0.00,,,-99.99,125.000000,,2013-05-30 00:52:00,
2013-05-29 20:01:00,80.0,70.0,-100.00,SSE,150,9.0,21.0,71,0.00,,,-99.99,125.000000,,2013-05-30 01:01:00,
2013-05-29 20:32:00,79.0,71.0,-100.00,South,172,5.0,13.0,76,0.00,,,0.00,32.000000,,2013-05-30 01:32:00,
2013-05-29 20:42:00,79.0,71.0,-100.00,South,172,5.0,13.0,76,0.00,,,0.00,32.000000,,2013-05-30 01:42:00,
2013-05-29 20:52:00,79.0,71.0,-100.00,South,172,5.0,13.0,76,0.00,,,0.00,32.000000,,2013-05-30 01:52:00,
2013-05-29 21:01:00,79.0,71.0,-100.00,South,172,5.0,13.0,76,0.00,,,0.00,32.000000,,2013-05-30 02:01:00,
2013-05-29 21:32:00,76.0,70.0,-100.00,SSE,147,5.0,11.0,83,0.00,,,0.00,1.000000,,2013-05-30 02:32:00,
2013-05-29 21:42:00,76.0,70.0,-100.00,SSE,147,5.0,11.0,83,0.00,,,0.00,1.000000,,2013-05-30 02:42:00,
2013-05-29 21:52:00,76.0,70.0,-100.00,SSE,147,5.0,11.0,83,0.00,,,0.00,1.000000,,2013-05-30 02:52:00,
2013-05-29 22:02:00,76.0,70.0,-100.00,SSE,147,5.0,11.0,83,0.00,,,0.00,1.000000,,2013-05-30 03:02:00,
2013-05-29 22:33:00,74.0,71.0,-100.00,SE,145,6.0,11.0,90,0.00,,,0.00,0.000000,,2013-05-30 03:33:00,
2013-05-29 22:43:00,74.0,71.0,-100.00,SE,145,6.0,11.0,90,0.00,,,0.00,0.000000,,2013-05-30 03:43:00,
2013-05-29 22:53:00,74.0,71.0,-100.00,SE,145,6.0,11.0,90,0.00,,,0.00,0.000000,,2013-05-30 03:53:00,
2013-05-29 23:02:00,74.0,71.0,-100.00,SE,145,6.0,11.0,90,0.00,,,0.00,0.000000,,2013-05-30 04:02:00,
2013-05-29 23:33:00,74.0,71.0,-100.00,SE,141,5.0,10.0,91,0.00,,,0.00,0.000000,,2013-05-30 04:33:00,
2013-05-29 23:42:00,74.0,71.0,-100.00,SE,141,5.0,10.0,91,0.00,,,0.00,0.000000,,2013-05-30 04:42:00,
2013-05-29 23:53:00,74.0,71.0,-100.00,SE,141,5.0,10.0,91,0.00,,,0.00,0.000000,,2013-05-30 04:53:00,